Tracking 33203 objects as of 15-Feb-2026
HD Live streaming from Space Station
objects crossing your sky now

DELTA 1 DEB

Track DELTA 1 DEB now!
10-day predictions


NORAD ID: 7141
Int'l Code: 1973-086DF
Perigee: 1,487.4 km
Apogee: 1,532.0 km
Inclination: 102.1 °
Period: 116.0 minutes
Semi major axis: 7880 km
RCS: 0.0598 m2 (small)
Launch date: November 6, 1973
Source: United States (US)
Launch site: AIR FORCE WESTERN TEST RANGE (AFWTR)

Note: This is SATELLITE DEBRIS
Your satellite tracking list
Your tracking list is empty




NASA's NSSDC Master Catalog

Two Line Element Set (TLE):
1 07141U 73086DF  26046.07801763  .00000223  00000-0  19804-2 0  9998
2 07141 102.0836  98.4433 0028303 179.6378 208.7684 12.40947903359903
Source of the keplerian elements: AFSPC